Showing default

YAOGAN-30 M, 43172

Orbit data source: Space-Track

YAOGAN-30 M, 43172 is a payload satellite owned by PLA SSF (CN) in LEO that was launched on Thu, 25 Jan 2018 UTC via a CHANG ZHENG 2C launch vehicle from the Xichang Space Center, China (XSC). Payload-class satellites include a variety of spacecraft equipped with specific instruments for various scientific and technological missions. These include communications satellites like Starlink; space stations such as the ISS; scientific satellites like the Hubble; Earth observation satellites from companies like Planet Labs, Umbra, and HawkEye 360; GPS; miniature CubeSats for education and research; and military/defense satellites.

Loading next visibility...
Identifier
43172, 2018-011D
Orbit
LEO
Country
Flag of CNCN / PRC
Related business
Manufacturer
SECM
Mission
Operational Defense Sigint
Bus & Motor
Unknown
Mass
~500 kg wet, ~500 kg dry
Launch date (UTC)
2018-01-25 (8 years ago)
Launch vehicle
CHANG ZHENG 2C
Launch site
Xichang Space Center, China (XSC)
Object type
Payload
Rocket body
Debris
Shape & HBR
Box + 2 Pan, 0.5 m
Radar Cross Section
0.446 m², Large (>1 m²)

Expand to show TLE details & history
Last TLE update: 16 hours ago

TLE from 16 hours ago
0 YAOGAN-30 M
1 43172U 18011D   25310.28648726  .00010103  00000-0  77478-3 0  9993
2 43172  34.9971  68.0847 0003626 273.5132  86.5161 15.01098507424558
Epoch: 2025-11-06T06:52Z
TLE epoch observation values (Epoch: 2025-11-06T06:52:32.499Z)
Latitude
-0.00001°
Longitude
-80.7977°
Altitude
562.273 km
Speed
7.583 km/s
True Right ascension
04h 32m 20s
True Declination
0° 00' 00"
Sunlit
Object was in full shadow at epoch
Visualization orbit readout
Latitude
Unknown
Longitude
Unknown
Altitude
Unknown
Speed
Unknown
Apparent Right ascension
Unknown
Apparent Declination
Unknown
Sunlit
N/A
Visualization observer readout
Local Sidereal Time
18:57:08
Azimuth
Unknown
Elevation
Unknown
Doppler factor
Unknown
Orbital elements
Apogee altitude
569.245 km
Perigee altitude
564.209 km
Semi-major axis
6,944.864 km
Eccentricity
0.00036
Inclination
34.9971°
RAAN
68.0847°
Arg. of periapsis
273.5132°
True anomaly
86.55758°
Mean anomaly
86.5161°
Eccentric anomaly
86.53684°
Mean motion
3.75014 °/min
Orbital period
96 mins
BSTAR
0.00077478
Loading maneuver chart data...
Computing Atmospheric mass density...
Loading historical data...
Loading historical data...
Loading historical data...
Loading historical data...
Loading historical data...
Loading historical data...
Loading historical data...
Other satellites on launch #11 in the year 2018 (2018-01-25 UTC)

Documentation

Showing up to 5 results
|